CW8504 Weather Reports


time (UTC)temp
C
wind
direction
speed
KPH
gust
KPH
rain 1hr
cm
rain 24hr
cm
rain mn
cm
humidity
%
barometer
mb
20260505204905 13 42 6.4 25.7 0.00 0.00 0.00 15 1010.1
20260505204411 13 28 1.6 8.0 0.00 0.00 0.00 16 1010.2
20260505203904 13 51 4.8 16.1 0.00 0.00 0.00 15 1010.2
20260505203404 13 340 9.7 24.1 0.00 0.00 0.00 14 1010.3
20260505202904 13 238 1.6 8.0 0.00 0.00 0.00 17 1010.4
20260505202404 13 184 1.6 3.2 0.00 0.00 0.00 17 1010.3
20260505201904 13 336 0.0 16.1 0.00 0.00 0.00 13 1010.4
20260505201403 14 28 14.5 27.4 0.00 0.00 0.00 14 1010.3
20260505200405 13 238 3.2 19.3 0.00 0.00 0.00 17 1010.3
20260505195404 14 39 3.2 19.3 0.00 0.00 0.00 14 1010.3
20260505194404 14 242 1.6 14.5 0.00 0.00 0.00 14 1010.4
20260505193911 13 38 6.4 22.5 0.00 0.00 0.00 15 1010.4
20260505192904 13 281 0.0 25.7 0.00 0.00 0.00 16 1010.5
20260505191404 13 39 3.2 11.3 0.00 0.00 0.00 16 1010.6
20260505190405 13 33 3.2 14.5 0.00 0.00 0.00 18 1010.8
20260505185904 12 45 6.4 16.1 0.00 0.00 0.00 17 1010.7
20260505185404 13 56 8.0 14.5 0.00 0.00 0.00 16 1010.7
20260505184904 13 56 8.0 14.5 0.00 0.00 0.00 17 1010.8
20260505184404 13 47 8.0 19.3 0.00 0.00 0.00 17 1010.9
20260505183904 13 51 3.2 11.3 0.00 0.00 0.00 16 1011.0
20260505183404 13 33 4.8 19.3 0.00 0.00 0.00 16 1011.0
20260505182904 13 247 3.2 12.9 0.00 0.00 0.00 17 1011.1
20260505182404 13 31 8.0 19.3 0.00 0.00 0.00 17 1011.0
20260505181904 13 235 4.8 14.5 0.00 0.00 0.00 18 1011.0
20260505181404 13 226 1.6 11.3 0.00 0.00 0.00 18 1011.0
20260505180905 13 248 3.2 19.3 0.00 0.00 0.00 20 1011.1
20260505180404 13 31 4.8 16.1 0.00 0.00 0.00 18 1011.1
20260505175904 13 336 1.6 16.1 0.00 0.00 0.00 15 1011.1
20260505175404 13 351 1.6 9.7 0.00 0.00 0.00 18 1011.3
20260505174904 13 50 3.2 14.5 0.00 0.00 0.00 21 1011.3
20260505174404 13 52 1.6 8.0 0.00 0.00 0.00 20 1011.4
20260505173904 13 349 1.6 8.0 0.00 0.00 0.00 22 1011.5
20260505173403 12 229 0.0 12.9 0.00 0.00 0.00 20 1011.5
20260505172905 12 272 0.0 14.5 0.00 0.00 0.00 20 1011.5
20260505172404 12 44 1.6 14.5 0.00 0.00 0.00 21 1011.6
20260505171904 13 17 3.2 19.3 0.00 0.00 0.00 20 1011.4
20260505171404 13 5 1.6 8.0 0.00 0.00 0.00 21 1011.5
20260505170911 13 30 0.0 4.8 0.00 0.00 0.00 23 1011.5
20260505170404 13 63 3.2 16.1 0.00 0.00 0.00 22 1011.6
20260505165904 13 62 3.2 4.8 0.00 0.00 0.00 24 1011.5
20260505165404 13 304 0.0 3.2 0.00 0.00 0.00 25 1011.6
20260505164910 13 308 0.0 0.0 0.00 0.00 0.00 25 1011.6
20260505163904 12 307 1.6 9.7 0.00 0.00 0.00 25 1011.7
20260505163404 12 232 1.6 8.0 0.00 0.00 0.00 28 1011.7
20260505162404 12 103 0.0 4.8 0.00 0.00 0.00 31 1011.7
20260505161904 12 170 0.0 9.7 0.00 0.00 0.00 30 1011.8
20260505161404 12 121 0.0 4.8 0.00 0.00 0.00 32 1011.8
20260505160904 12 103 0.0 3.2 0.00 0.00 0.00 32 1011.8
20260505160404 12 150 0.0 3.2 0.00 0.00 0.00 32 1011.9
20260505152904 10 223 1.6 9.7 0.00 0.00 0.00 38 1012.2
20260505152404 10 215 0.0 0.0 0.00 0.00 0.00 38 1012.2
20260505151904 9 215 0.0 8.0 0.00 0.00 0.00 40 1012.4
20260505151404 9 218 3.2 9.7 0.00 0.00 0.00 42 1012.4
20260505150904 8 224 3.2 8.0 0.00 0.00 0.00 42 1012.4
20260505124407 6 252 0.0 0.0 0.00 0.00 0.00 53 1012.3
20260505123903 6 252 0.0 0.0 0.00 0.00 0.00 53 1012.2
20260505122904 6 252 0.0 0.0 0.00 0.00 0.00 52 1012.2
20260505121904 6 253 0.0 0.0 0.00 0.00 0.00 51 1012.2
20260505121404 6 252 0.0 0.0 0.00 0.00 0.00 50 1012.3
20260505120903 6 240 0.0 0.0 0.00 0.00 0.00 49 1012.4
20260505120405 6 240 0.0 0.0 0.00 0.00 0.00 49 1012.4
20260505115904 6 161 0.0 0.0 0.00 0.00 0.00 49 1012.4
20260505114904 6 122 0.0 4.8 0.00 0.00 0.00 49 1012.2
20260505114405 7 224 0.0 4.8 0.00 0.00 0.00 48 1012.3
20260505113405 7 248 0.0 0.0 0.00 0.00 0.00 50 1012.4
20260505112904 7 15 0.0 0.0 0.00 0.00 0.00 49 1012.2
20260505112404 7 15 0.0 0.0 0.00 0.00 0.00 49 1012.3
20260505111904 7 15 0.0 4.8 0.00 0.00 0.00 49 1012.3
20260505111404 7 277 0.0 0.0 0.00 0.00 0.00 49 1012.2
20260505110904 7 277 0.0 0.0 0.00 0.00 0.00 49 1012.2
20260505101903 5 5 0.0 0.0 0.00 0.00 0.00 63 1012.2
20260505101405 5 5 0.0 0.0 0.00 0.00 0.00 63 1012.2
20260505100904 5 5 0.0 0.0 0.00 0.00 0.00 64 1012.2
20260505100404 5 5 0.0 0.0 0.00 0.00 0.00 64 1012.2
20260505095904 5 5 0.0 0.0 0.00 0.00 0.00 63 1012.1
20260505095404 5 5 0.0 0.0 0.00 0.00 0.00 63 1012.0
20260505094904 5 5 0.0 0.0 0.00 0.00 0.00 64 1012.1
20260505094404 5 5 0.0 0.0 0.00 0.00 0.00 63 1012.0
20260505093904 5 5 0.0 0.0 0.00 0.00 0.00 64 1012.1
20260505093404 5 5 0.0 0.0 0.00 0.00 0.00 64 1012.0
20260505092904 5 5 0.0 0.0 0.00 0.00 0.00 64 1012.0
20260505092404 5 5 0.0 0.0 0.00 0.00 0.00 64 1011.9
20260505091904 5 5 0.0 0.0 0.00 0.00 0.00 64 1011.9
20260505091404 5 5 0.0 0.0 0.00 0.00 0.00 64 1012.0
20260505090904 5 5 0.0 0.0 0.00 0.00 0.00 64 1012.0
20260505090404 5 5 0.0 0.0 0.00 0.00 0.00 63 1011.9
20260505085904 5 5 0.0 0.0 0.00 0.00 0.00 63 1011.8
20260505085404 5 5 0.0 0.0 0.00 0.00 0.00 63 1011.8
20260505084903 5 5 0.0 0.0 0.00 0.00 0.00 63 1011.9
20260505084404 5 5 0.0 0.0 0.00 0.00 0.00 63 1011.9
20260505083904 5 5 0.0 0.0 0.00 0.00 0.00 64 1011.9
20260505082904 5 5 0.0 0.0 0.00 0.00 0.00 64 1011.9
20260505082404 5 5 0.0 0.0 0.00 0.00 0.00 64 1012.0
20260505081904 5 5 0.0 0.0 0.00 0.00 0.00 63 1012.2
20260505081404 5 5 0.0 0.0 0.00 0.00 0.00 63 1012.1
20260505080904 5 5 0.0 0.0 0.00 0.00 0.00 63 1012.1
20260505080404 5 5 0.0 0.0 0.00 0.00 0.00 63 1012.0
20260505075904 5 5 0.0 0.0 0.00 0.00 0.00 62 1012.0
20260505075404 5 5 0.0 0.0 0.00 0.00 0.00 62 1012.1
20260505074904 5 5 0.0 0.0 0.00 0.00 0.00 61 1012.1
20260505074404 5 5 0.0 0.0 0.00 0.00 0.00 60 1012.1
20260505073404 6 5 0.0 0.0 0.00 0.00 0.00 61 1012.0
20260505072904 6 5 0.0 0.0 0.00 0.00 0.00 61 1012.0
20260505072404 6 5 0.0 0.0 0.00 0.00 0.00 60 1012.0
20260505071904 6 5 0.0 0.0 0.00 0.00 0.00 59 1012.0
20260505071404 6 5 0.0 0.0 0.00 0.00 0.00 59 1012.1
20260505070404 6 5 0.0 0.0 0.00 0.00 0.00 58 1012.1
20260505065904 6 5 0.0 0.0 0.00 0.00 0.00 58 1012.0
20260505065404 6 5 0.0 0.0 0.00 0.00 0.00 58 1012.0
20260505064904 6 5 0.0 0.0 0.00 0.00 0.00 58 1012.0
20260505064404 6 5 0.0 0.0 0.00 0.00 0.00 58 1012.0
20260505062904 6 5 0.0 0.0 0.00 0.00 0.00 58 1012.0
20260505062404 6 5 0.0 0.0 0.00 0.00 0.00 57 1012.0
20260505061904 6 5 0.0 0.0 0.00 0.00 0.00 57 1012.0
20260505061404 6 5 0.0 0.0 0.00 0.00 0.00 58 1011.9
20260505060404 7 5 0.0 0.0 0.00 0.00 0.00 57 1012.0
20260505055904 6 5 0.0 0.0 0.00 0.00 0.00 56 1012.0
20260505055405 7 5 0.0 0.0 0.00 0.00 0.00 56 1012.0
20260505054904 7 5 0.0 0.0 0.00 0.00 0.00 55 1012.0
20260505054403 7 5 0.0 0.0 0.00 0.00 0.00 54 1011.9
20260505053903 7 5 0.0 0.0 0.00 0.00 0.00 53 1011.8
20260505052404 7 5 0.0 0.0 0.00 0.00 0.00 52 1011.6
20260505051904 7 5 0.0 0.0 0.00 0.00 0.00 52 1011.5
20260505051404 7 5 0.0 0.0 0.00 0.00 0.00 52 1011.5
20260505050904 7 5 0.0 0.0 0.00 0.00 0.00 52 1011.5
20260505050404 8 5 0.0 0.0 0.00 0.00 0.00 51 1011.5
20260505041418 8 5 0.0 0.0 0.00 0.00 0.00 48 1011.2
20260505040904 8 5 0.0 0.0 0.00 0.00 0.00 47 1011.2
20260505040404 8 5 0.0 0.0 0.00 0.00 0.00 47 1011.1
20260505034904 9 5 0.0 0.0 0.00 0.00 0.00 45 1010.9
20260505034403 9 5 0.0 0.0 0.00 0.00 0.00 45 1010.7
20260505033903 9 5 0.0 0.0 0.00 0.00 0.00 42 1010.6
20260505033404 10 5 0.0 0.0 0.00 0.00 0.00 43 1010.6
20260505032904 10 5 0.0 0.0 0.00 0.00 0.00 41 1010.4
20260505032404 10 5 0.0 0.0 0.00 0.00 0.00 41 1010.5
20260505031904 11 5 0.0 0.0 0.00 0.00 0.00 37 1010.4
20260505031404 11 5 0.0 0.0 0.00 0.00 0.00 36 1010.3
20260505030904 11 5 0.0 0.0 0.00 0.00 0.00 36 1010.2
20260505030407 12 5 0.0 0.0 0.00 0.00 0.00 35 1010.1
20260505025904 12 5 0.0 0.0 0.00 0.00 0.00 34 1010.1
20260505025404 12 5 0.0 0.0 0.00 0.00 0.00 33 1010.0
20260505024904 13 5 0.0 0.0 0.00 0.00 0.00 34 1010.0
20260505024404 13 5 0.0 0.0 0.00 0.00 0.00 32 1010.0
20260505023404 13 5 0.0 0.0 0.00 0.00 0.00 32 1010.0
20260505022905 13 5 0.0 0.0 0.00 0.00 0.00 30 1009.8
20260505022404 13 5 0.0 0.0 0.00 0.00 0.00 30 1009.8
20260505021904 14 5 0.0 0.0 0.00 0.00 0.00 29 1009.8
20260505021404 14 5 0.0 0.0 0.00 0.00 0.00 29 1009.8
20260505020904 14 5 0.0 0.0 0.00 0.00 0.00 29 1009.9
20260505020405 14 5 0.0 0.0 0.00 0.00 0.00 29 1009.9
20260505015903 14 5 0.0 0.0 0.00 0.00 0.00 27 1009.9
20260505015404 15 5 0.0 0.0 0.00 0.00 0.00 27 1009.8
20260505014904 15 5 0.0 0.0 0.00 0.00 0.00 27 1009.9
20260505014404 15 5 0.0 0.0 0.00 0.00 0.00 28 1009.8
20260505013904 15 5 0.0 8.0 0.00 0.00 0.00 26 1009.8
20260505013404 15 71 0.0 3.2 0.00 0.00 0.00 26 1009.8
20260505012904 15 222 1.6 4.8 0.00 0.00 0.00 26 1009.9
20260505012405 15 244 0.0 19.3 0.00 0.00 0.00 27 1010.0
20260505011905 15 223 1.6 16.1 0.00 0.00 0.00 25 1010.1
20260505011404 15 320 0.0 8.0 0.00 0.00 0.00 24 1010.0
20260505010404 16 344 6.4 24.1 0.00 0.00 0.00 22 1010.1
20260505005904 16 228 6.4 32.2 0.00 0.00 0.00 19 1010.0
20260505005404 16 227 1.6 16.1 0.00 0.00 0.00 17 1009.7
20260505004904 16 250 6.4 16.1 0.00 0.00 0.00 18 1009.7
20260505004407 16 229 9.7 19.3 0.00 0.00 0.00 19 1009.7
20260505003404 16 267 6.4 20.9 0.00 0.00 0.00 19 1009.7
20260505002903 16 231 16.1 27.4 0.00 0.00 0.00 19 1009.7
20260505002404 16 233 6.4 19.3 0.00 0.00 0.00 19 1009.6
20260505001904 17 233 4.8 14.5 0.00 0.00 0.00 19 1009.6
20260505000904 17 247 14.5 25.7 0.00 0.00 0.00 16 1009.6
20260505000405 18 256 1.6 22.5 0.00 0.00 0.00 14 1009.5
20260504235903 18 236 4.8 16.1 0.00 0.00 0.00 15 1009.4
20260504235404 18 243 0.0 0.0 0.00 0.00 0.00 14 1009.4
20260504233904 18 38 4.8 12.9 0.00 0.00 0.00 13 1009.5
20260504233404 18 46 0.0 3.2 0.00 0.00 0.00 15 1009.4
20260504232907 18 49 0.0 8.0 0.00 0.00 0.00 15 1009.3
20260504231404 18 244 4.8 14.5 0.00 0.00 0.00 13 1009.2
20260504230904 18 223 0.0 0.0 0.00 0.00 0.00 14 1009.3
20260504230404 18 222 0.0 4.8 0.00 0.00 0.00 14 1009.4
20260504225904 17 236 0.0 4.8 0.00 0.00 0.00 16 1009.5
20260504225404 17 28 0.0 0.0 0.00 0.00 0.00 17 1009.6
20260504224404 17 40 1.6 14.5 0.00 0.00 0.00 16 1009.6
20260504223904 17 104 6.4 20.9 0.00 0.00 0.00 16 1009.7
20260504222903 17 41 1.6 9.7 0.00 0.00 0.00 15 1009.6
20260504222404 17 36 1.6 3.2 0.00 0.00 0.00 14 1009.6
20260504221904 17 42 4.8 16.1 0.00 0.00 0.00 14 1009.6
20260504220904 17 3 4.8 20.9 0.00 0.00 0.00 17 1009.9
20260504220404 17 48 3.2 12.9 0.00 0.00 0.00 18 1009.9
20260504215404 16 33 1.6 12.9 0.00 0.00 0.00 18 1010.3
20260504214904 16 34 0.0 16.1 0.00 0.00 0.00 18 1010.3
20260504214404 17 7 3.2 25.7 0.00 0.00 0.00 18 1010.3
20260504213403 17 42 4.8 9.7 0.00 0.00 0.00 16 1010.1
20260504212904 17 31 1.6 8.0 0.00 0.00 0.00 17 1010.2
20260504211904 16 58 0.0 4.8 0.00 0.00 0.00 19 1010.4
20260504211404 16 58 3.2 16.1 0.00 0.00 0.00 18 1010.5
20260504210904 16 44 3.2 11.3 0.00 0.00 0.00 19 1010.6
20260504210406 16 42 3.2 19.3 0.00 0.00 0.00 19 1010.6
20260504205404 16 34 4.8 40.2 0.00 0.00 0.00 19 1010.7